Main page
METAR-TAF:

METAR-TAF

Airports :

Gonabad, Iran

latitude: 34-22-51N, longitude: 58-38-23E, elevation: 1100 m

Current weather observation

The report was made 18 minutes ago, at 14:00 UTC
Wind 4 kt from the North/Northeast
Temperature 37°C
Humidity 13%
Pressure 1005 hPa
Visibility 10 km or more
no clouds below 1500 m and no cumulonimbus

METAR: OIMD 181400Z 03004KT CAVOK 37/04 Q1005

Time: 18:48 (14:18 UTC)


TAF: missing

Weather observations and forecasts of more than 4000 airports (METAR and TAF reports).

The available stations are represented by yellow and red dots on the map.

Hover mouse over dot to see the name of the station.

Then click to see weather observations and forecasts.

To change the map : click on the green buttons with a black cross to zoom in, on the green button with a dash to zoom out, or on the green arrows for adjacent maps.


METAR-TAF: